Tracking 35274 objects as of 11-Sep-2026
HD Live streaming from Space Station
objects crossing your sky now

STARLINK-30299

Track STARLINK-30299 now!
10-day predictions
STARLINK-30299 is classified as:


NORAD ID: 57650
Int'l Code: 2023-122U
Launch date: August 17, 2023
Source: United States (US)
Launch site: AIR FORCE EASTERN TEST RANGE (AFETR)
Your satellite tracking list
Your tracking list is empty




NASA's NSSDC Master Catalog

Two Line Element Set (TLE):
1 57650U 23122U   26252.39806224 -.00000489  00000-0 -82537-5 0  9997
2 57650  43.0072 134.9377 0001156 254.1073 105.9651 15.27569666170301
Source of the keplerian elements: AFSPC